Daytona Beach, FL

9:36 PM EST on February 21, 2017 (GMT -0500)
Daytona Beach International

Weather History for KDAB - November, 2013

Change the Weather History Date:

Friday, November 29, 2013

  Actual Average Record
Temperature  
Mean Temperature 59 °F 64 °F  
Max Temperature 68 °F 73 °F 87 °F (1978)
Min Temperature 49 °F 54 °F 32 °F (1956)
Degree Days  
Heating Degree Days 6 4  
Month to date heating degree days 30 62  
Since 1 July heating degree days 31 70  
Cooling Degree Days 0 3  
Month to date cooling degree days 179 115  
Year to date cooling degree days 3139 2911  
Growing Degree Days 7 (Base 50)    
Moisture  
Dew Point 52 °F    
Average Humidity 75    
Maximum Humidity 93    
Minimum Humidity 56    
Precipitation  
Precipitation T in 0.08 in 1.13 in (2007)
Month to date precipitation 3.11 2.60  
Year to date precipitation 46.36 46.90  
Sea Level Pressure  
Sea Level Pressure 30.35 in    
Wind  
Wind Speed 12 mph (North)    
Max Wind Speed 25 mph    
Max Gust Speed 33 mph    
Visibility 10 miles    
Events Rain    
T = Trace of Precipitation, MM = Missing Value Source: NWS Daily Summary

Daily Weather History Graph

Daily Weather History Graph

Search for Another Location

Airport or City:

Trip Planner

Search our weather history database for the weather conditions in past years. The results will help you decide how hot, cold, wet, or windy it might be!

Date:

Astronomy

Nov. 29, 2013 Rise Set
Actual Time 6:59 AM EST 5:25 PM EST
Civil Twilight 6:33 AM EST 5:51 PM EST
Nautical Twilight 6:04 AM EST 6:20 PM EST
Astronomical Twilight 5:35 AM EST 6:49 PM EST
Moon 3:18 AM EST (11/29) 2:56 PM EST (11/29)
Length of Visible Light 11h 17m
Length of Day
10h 26m
Waning Crescent, 14% of the Moon is Illuminated
Nov 29
Waning Crescent
Dec 2
New
Dec 9
First Quarter
Dec 17
Full
Dec 25
Last Quarter

Hourly Weather History & Observations

Time (EST) Temp. Dew Point Humidity Pressure Visibility Wind Dir Wind Speed Gust Speed Precip Events Conditions
12:53 AM 50.0 °F 46.9 °F 89% 30.34 in 10.0 mi WNW 5.8 mph - N/A   Scattered Clouds
1:53 AM 48.9 °F 46.0 °F 90% 30.34 in 10.0 mi WNW 5.8 mph - N/A   Scattered Clouds
2:53 AM 48.9 °F 46.0 °F 90% 30.34 in 10.0 mi WNW 3.5 mph - N/A   Scattered Clouds
3:53 AM 50.0 °F 46.9 °F 89% 30.34 in 10.0 mi NW 3.5 mph - N/A   Partly Cloudy
4:53 AM 50.0 °F 46.9 °F 89% 30.34 in 10.0 mi Calm Calm - N/A   Clear
5:53 AM 51.1 °F 48.9 °F 92% 30.33 in 10.0 mi Calm Calm - N/A   Partly Cloudy
6:53 AM 54.0 °F 51.1 °F 90% 30.35 in 10.0 mi Calm Calm - N/A   Scattered Clouds
7:53 AM 57.0 °F 54.0 °F 89% 30.37 in 10.0 mi Calm Calm - N/A   Scattered Clouds
8:53 AM 63.0 °F 55.9 °F 78% 30.38 in 10.0 mi NNW 6.9 mph - N/A   Scattered Clouds
9:53 AM 66.9 °F 57.0 °F 70% 30.39 in 10.0 mi North 18.4 mph 24.2 mph N/A   Mostly Cloudy
10:53 AM 66.0 °F 55.9 °F 70% 30.39 in 10.0 mi NNE 19.6 mph 27.6 mph N/A   Mostly Cloudy
11:53 AM 66.0 °F 55.0 °F 68% 30.37 in 10.0 mi North 15.0 mph 25.3 mph N/A   Mostly Cloudy
12:53 PM 66.9 °F 54.0 °F 63% 30.35 in 10.0 mi North 23.0 mph 28.8 mph N/A   Mostly Cloudy
1:53 PM 66.9 °F 51.1 °F 57% 30.34 in 10.0 mi NNE 24.2 mph 32.2 mph N/A   Scattered Clouds
2:53 PM 66.0 °F 50.0 °F 56% 30.33 in 10.0 mi NNE 21.9 mph - N/A   Scattered Clouds
3:53 PM 64.0 °F 50.0 °F 60% 30.34 in 10.0 mi NNE 20.7 mph 28.8 mph N/A   Mostly Cloudy
4:53 PM 63.0 °F 50.0 °F 63% 30.34 in 10.0 mi North 15.0 mph 21.9 mph N/A   Mostly Cloudy
5:53 PM 62.1 °F 51.1 °F 67% 30.35 in 10.0 mi North 18.4 mph - 0.00 in Rain Light Rain
6:53 PM 62.1 °F 50.0 °F 65% 30.35 in 10.0 mi North 15.0 mph 20.7 mph 0.00 in   Mostly Cloudy
7:53 PM 60.1 °F 53.1 °F 78% 30.35 in 10.0 mi North 11.5 mph - N/A   Scattered Clouds
8:53 PM 59.0 °F 53.1 °F 81% 30.35 in 10.0 mi NNW 8.1 mph - N/A   Partly Cloudy
9:12 PM 60.8 °F 53.6 °F 77% 30.36 in 10.0 mi NNW 9.2 mph - N/A   Mostly Cloudy
9:53 PM 61.0 °F 55.0 °F 81% 30.35 in 10.0 mi North 15.0 mph 24.2 mph N/A   Overcast
10:28 PM 60.8 °F 55.4 °F 82% 30.35 in 10.0 mi NNW 12.7 mph 18.4 mph N/A   Mostly Cloudy
10:53 PM 61.0 °F 55.9 °F 83% 30.35 in 10.0 mi North 13.8 mph 21.9 mph N/A   Overcast
11:53 PM 62.1 °F 57.0 °F 84% 30.34 in 10.0 mi North 17.3 mph 23.0 mph N/A   Mostly Cloudy